SCP
0 0 0 0 0 0 0 0 0 0 0 0 0 0 0 0 0 0 0 0 0 -0 0 0 0 -0 0 0 0 0 0 0 0 0 0 0 0 0
0 0 0 0 0 0 0 0 0 0 0 0 -0 -0 -0 0 0 0 0 0 0 0 0 0 0 0 0 0 0 0 0 0 0 0 0 0 0 0
0 0 0 0 0 0 0 0 0 0 0 0 0 0 0 0 0 -0 0 0 0 0 0 -0 -0 0 0 0 0 0 0 0 0 0 0 0 0 0
0 0 0 0 0 0 0 0 0 0 0 0 0 0 0 0 0 -0 0 0 0 0 0 0 0 0 0 0 0 0 0 0 0 0 0 0 0 0
0 0 0 0 0 0 0 0 0 0 0 0 0 0 0 0 0 0 0 0 -0 0 0 0 0 0 0 0 0 0 0 0 0 0 0 0 0 0
0 0 0 0 0 0 0 0 0 0 0 0 0 0 0 0 0 0 0 0 0 0 0 0 0 0 0 0 0 0 0 0 0 0 0 0 0 0
0 0 0 0 0 0 0 0 0 0 0 0 0 0 0 0 0 -0 0 0 0 0 0 0 0 0 0 0 0 0 0 0 0 0 0 0 0 0
0 0 0 0 0 0 0 0 0 0 0 0 0 0 0 0 0 0 0 0 0 0 0 0 0 0 0 0 0 0 0 0 0 0 0 0 0 0
0 0 0 0 0 0 0 0 0 0 0 0 -0 -0 0 0 -0 0 0 0 0 0 0 0 0 0 0 0 0 0 0 0 0 0 0 0 0 0
0 0 0 0 0 0 0 0 0 0 0 0 0 -0 0 0 0 0 0 0 0 0 0 0 0 0 0 0 0 0 0 0 0 0 0 0 0 0
0 0 0 0 0 0 0 0 0 0 0 0 -0 -0 -0 -0 -0 0 0 0 0 0 0 0 0 0 0 0 0 0 0 0 0 0 0 0 0 0
0 0 0 0 0 0 0 0 0 0 0 -0 -0 -0 0 -0 -0 0 0 0 0 0 0 0 0 0 0 0 0 0 0 0 0 0 0 0 0 0
0 0 0 0 0 0 0 0 0 0 0 0 0 0 0 -0 0 0 -0 0 0 0 0 0 0 0 0 0 0 0 0 0 0 0 0 0 0 0
0 0 0 0 0 0 0 0 0 0 0 0 0 0 0 0 0 -0 -0 -0 -0 0 0 0 0 0 0 0 0 0 0 0 0 0 0 0 0 0
0 0 0 0 0 0 0 0 0 0 0 0 0 0 0 0 0 0 0 0 -0 0 0 0 0 0 0 0 0 0 0 0 0 0 0 0 0 0
0 0 0 0 0 0 0 0 0 0 0 0 0 0 0 0 0 0 0 0 0 0 -0 -0 0 0 0 0 0 0 0 0 0 0 0 0 0 0
0 0 0 0 0 0 0 0 0 0 0 -0 0 0 0 0 0 0 0 0 0 0 0 0 0 0 0 0 0 0 0 0 0 0 0 0 0 0
0 0 0 0 0 0 0 0 0 0 0 0 0 0 0 0 0 0 0 0 0 0 0 0 0 0 0 0 0 0 0 0 0 0 0 0 0 0
0 0 0 0 0 0 0 0 0 0 0 0 0 0 0 0 0 0 0 0 0 0 0 0 0 0 0 0 0 0 0 0 0 0 0 0 0 0
0 0 0 0 0 0 0 0 0 0 0 0 0 0 0 0 0 0 0 0 0 0 0 0 0 0 0 0 0 0 0 0 0 0 0 0 0 0
0 0 0 0 0 0 0 0 0 0 0 0 0 0 0 0 0 0 0 0 0 0 0 0 0 0 0 0 0 0 0 0 0 0 0 0 0 0
0 0 0 0 0 0 0 0 0 0 0 0 0 0 0 0 0 0 0 0 0 0 0 0 0 0 0 0 0 0 0 0 0 0 0 0 0 0
0 0 0 0 0 0 0 0 0 0 0 0 0 0 0 0 0 0 0 0 0 0 0 0 0 0 0 0 0 0 0 0 0 0 0 0 0 0
Wind_Speed_500mb
47 51 56 59 60 59 64 66 67 68 72 60 60 59 58 46 45 49 53 53 67 76 74 74 63 88 125 126 135 142 141 119 95 98 105 113 109 105
46 50 55 57 60 62 60 66 64 72 79 63 73 76 74 64 49 50 61 58 47 46 66 72 58 88 88 96 105 115 107 103 99 102 105 124 110 111
46 51 55 54 60 58 58 60 64 64 77 72 53 46 57 71 72 66 62 54 49 49 41 52 65 72 62 84 114 97 107 109 95 112 119 114 107 113
44 48 51 52 57 56 57 62 59 64 71 79 73 71 70 48 42 71 66 37 39 54 54 38 68 67 46 64 57 100 107 115 105 113 126 123 117 125
41 41 42 47 52 49 53 47 50 53 56 67 73 68 64 59 62 54 55 51 52 44 45 46 47 44 58 59 54 45 68 98 94 108 122 128 135 127
36 33 34 37 36 38 42 44 54 56 54 63 64 64 59 45 54 49 49 43 48 44 40 28 46 44 51 59 68 67 61 69 81 83 94 99 115 138
31 35 37 38 34 34 39 46 52 50 45 56 52 50 44 49 40 24 35 40 41 37 36 25 19 24 27 31 38 42 53 62 76 86 83 85 85 97
27 28 31 35 38 38 36 39 43 50 52 45 47 50 41 39 39 36 33 34 32 26 23 3 10 15 7 9 25 29 35 40 45 46 60 51 54 84
29 33 33 31 32 34 30 35 39 40 43 47 52 51 52 45 39 35 36 35 29 28 28 13 10 9 6 2 16 18 15 20 27 34 48 73 97 98
30 30 34 34 30 26 26 25 26 29 38 43 49 54 50 39 37 33 36 32 30 26 24 26 28 20 17 24 21 15 22 38 57 69 77 70 55 43
37 33 30 33 27 22 18 18 21 26 32 35 37 39 36 35 34 37 37 31 30 32 32 41 48 52 53 52 50 39 44 47 44 42 42 40 35 27
43 45 42 38 33 30 24 20 20 18 23 26 29 28 30 30 32 34 36 29 39 30 36 37 56 50 34 41 41 45 43 37 33 28 23 21 21 22
41 43 47 47 40 34 27 22 20 23 20 15 14 13 12 15 18 19 21 24 40 22 44 43 57 35 28 48 39 37 33 33 32 29 25 20 21 17
38 41 43 43 42 38 31 30 28 24 20 16 11 11 10 9 9 6 8 14 22 5 34 38 54 33 34 53 41 38 33 27 20 20 21 25 25 26
32 37 38 38 37 36 37 37 33 27 23 17 15 15 16 18 17 16 18 20 17 18 31 28 34 26 20 34 43 43 35 31 27 23 25 20 15 16
26 28 30 31 32 33 31 31 32 32 28 24 21 21 22 21 19 19 19 19 18 26 27 22 30 26 24 23 27 32 35 22 32 28 23 19 19 17
22 24 24 22 23 23 26 27 28 29 28 30 28 26 27 26 25 21 13 11 16 25 30 31 32 25 16 16 18 22 30 18 30 26 24 19 18 18
19 18 19 19 19 19 19 21 21 21 23 26 26 28 27 24 23 21 23 18 20 24 26 27 24 23 24 23 21 22 28 19 21 28 24 21 18 20
21 19 19 18 16 15 14 13 13 14 15 17 17 15 16 14 16 18 19 18 21 22 19 20 22 19 22 21 23 26 22 18 16 18 20 21 21 24
25 24 21 19 18 16 14 12 9 6 4 4 4 5 5 6 7 8 10 9 9 9 13 14 15 14 13 12 15 21 20 19 19 20 21 23 25 27
25 25 25 23 21 20 18 17 16 14 12 8 6 6 5 5 6 6 7 9 11 14 15 15 16 15 15 15 15 17 20 22 24 25 24 25 26 29
20 20 20 21 22 21 20 20 19 19 19 18 16 16 15 15 14 13 13 14 16 18 19 19 21 21 22 21 21 21 23 24 25 26 28 27 23 13
23 21 19 17 17 19 21 21 22 22 22 22 22 22 21 21 22 22 22 22 23 22 23 24 25 25 26 25 25 24 26 26 26 25 24 24 24 23
Wind_Direction_500mb
285 281 278 277 274 270 268 270 271 282 285 286 287 288 273 284 279 274 279 287 276 275 271 257 264 265 253 244 239 246 241 231 238 237 230 229 228 230
293 290 286 283 279 277 266 267 270 273 278 283 285 283 280 270 269 280 276 279 286 282 270 262 255 263 265 253 245 243 239 230 233 242 231 231 233 233
301 300 297 292 287 282 276 268 269 273 272 276 278 292 292 284 263 272 293 283 283 287 273 264 261 264 290 262 246 252 255 258 257 234 237 230 238 238
305 301 298 297 293 285 274 271 269 270 270 287 290 285 278 285 289 264 281 301 293 277 265 253 256 257 275 271 280 245 248 252 248 252 236 243 239 240
306 300 302 299 290 281 276 274 276 276 277 284 284 291 289 273 277 280 274 287 284 286 260 264 260 256 257 259 275 295 263 245 248 245 249 250 235 250
306 305 314 311 298 292 283 279 283 277 279 280 291 294 286 288 273 282 274 284 269 280 307 274 257 253 248 251 249 252 254 253 250 257 243 239 250 250
312 312 313 310 301 290 279 276 273 278 277 286 292 293 287 284 269 302 280 275 261 272 289 292 265 245 240 239 247 253 253 252 252 253 254 257 260 256
354 347 332 325 315 287 275 274 269 271 275 279 282 288 290 288 294 287 306 277 247 252 264 202 348 297 302 274 261 264 267 259 252 244 246 235 184 185
357 341 339 335 330 319 282 266 268 266 267 274 278 277 281 291 296 291 297 277 248 205 198 182 226 292 295 342 303 299 287 269 248 235 213 182 169 156
1 355 348 344 335 325 308 278 273 280 278 270 268 274 277 284 281 282 283 277 245 215 187 135 140 136 138 116 104 141 150 157 147 140 139 137 132 137
14 5 5 8 1 356 339 301 287 287 291 295 284 272 268 258 260 263 269 263 219 191 191 157 139 131 130 127 128 126 130 129 131 128 128 133 132 145
19 22 24 21 13 13 10 352 328 318 307 306 305 299 276 259 256 255 270 256 223 190 185 162 151 136 117 129 135 136 132 131 134 135 141 144 144 163
20 23 22 24 21 20 20 18 5 342 337 334 334 315 286 262 254 259 247 229 208 197 188 178 169 158 139 147 148 145 148 147 148 147 145 140 144 155
23 27 27 25 25 26 30 34 25 28 20 24 50 76 87 98 110 122 147 185 201 243 187 186 178 172 161 161 156 161 158 156 157 153 160 163 162 158
16 23 25 27 29 31 35 40 41 38 33 37 56 71 75 81 89 113 131 146 158 152 169 174 194 175 161 180 179 174 171 174 169 173 174 164 163 170
0 15 18 21 25 33 39 48 53 53 52 49 59 71 79 84 92 98 114 119 133 140 153 154 166 166 153 149 177 191 192 180 186 178 184 185 180 184
346 360 357 4 15 29 39 46 56 62 62 67 69 71 79 82 87 91 106 134 153 143 143 148 162 168 154 148 165 179 183 179 183 188 193 203 210 216
322 328 334 344 355 9 24 37 39 53 69 71 72 80 84 84 70 66 78 97 125 129 139 142 152 159 152 141 137 153 166 170 170 184 193 205 213 226
298 303 307 316 328 340 354 8 22 30 39 61 68 74 79 73 78 80 85 96 112 115 124 133 144 157 159 150 162 171 177 186 187 195 207 218 226 236
287 289 290 292 297 305 315 327 336 345 3 34 46 58 62 85 90 95 107 111 120 136 152 160 172 182 190 192 189 196 200 204 201 206 216 229 241 251
288 287 285 283 282 279 278 279 284 288 290 285 266 250 237 220 200 192 191 192 194 195 205 213 219 224 228 229 222 213 212 215 220 218 224 232 244 256
298 298 295 289 284 279 274 272 270 270 270 271 269 267 268 264 255 249 233 223 223 224 225 224 226 229 233 234 233 229 224 224 231 235 235 240 244 242
288 293 295 296 297 294 287 281 276 272 269 265 262 260 257 252 252 247 244 241 237 239 243 239 235 235 234 233 233 231 230 234 238 242 245 254 260 265
Wind_Speed_850mb
47 51 56 59 60 59 64 66 67 68 72 60 60 59 58 46 45 49 53 53 67 76 74 74 63 88 125 126 135 142 141 119 95 98 105 113 109 105
46 50 55 57 60 62 60 66 64 72 79 63 73 76 74 64 49 50 61 58 47 46 66 72 58 88 88 96 105 115 107 103 99 102 105 124 110 111
46 51 55 54 60 58 58 60 64 64 77 72 53 46 57 71 72 66 62 54 49 49 41 52 65 72 62 84 114 97 107 109 95 112 119 114 107 113
44 48 51 52 57 56 57 62 59 64 71 79 73 71 70 48 42 71 66 37 39 54 54 38 68 67 46 64 57 100 107 115 105 113 126 123 117 125
41 41 42 47 52 49 53 47 50 53 56 67 73 68 64 59 62 54 55 51 52 44 45 46 47 44 58 59 54 45 68 98 94 108 122 128 135 127
36 33 34 37 36 38 42 44 54 56 54 63 64 64 59 45 54 49 49 43 48 44 40 28 46 44 51 59 68 67 61 69 81 83 94 99 115 138
31 35 37 38 34 34 39 46 52 50 45 56 52 50 44 49 40 24 35 40 41 37 36 25 19 24 27 31 38 42 53 62 76 86 83 85 85 97
27 28 31 35 38 38 36 39 43 50 52 45 47 50 41 39 39 36 33 34 32 26 23 3 10 15 7 9 25 29 35 40 45 46 60 51 54 84
29 33 33 31 32 34 30 35 39 40 43 47 52 51 52 45 39 35 36 35 29 28 28 13 10 9 6 2 16 18 15 20 27 34 48 73 97 98
30 30 34 34 30 26 26 25 26 29 38 43 49 54 50 39 37 33 36 32 30 26 24 26 28 20 17 24 21 15 22 38 57 69 77 70 55 43
37 33 30 33 27 22 18 18 21 26 32 35 37 39 36 35 34 37 37 31 30 32 32 41 48 52 53 52 50 39 44 47 44 42 42 40 35 27
43 45 42 38 33 30 24 20 20 18 23 26 29 28 30 30 32 34 36 29 39 30 36 37 56 50 34 41 41 45 43 37 33 28 23 21 21 22
41 43 47 47 40 34 27 22 20 23 20 15 14 13 12 15 18 19 21 24 40 22 44 43 57 35 28 48 39 37 33 33 32 29 25 20 21 17
38 41 43 43 42 38 31 30 28 24 20 16 11 11 10 9 9 6 8 14 22 5 34 38 54 33 34 53 41 38 33 27 20 20 21 25 25 26
32 37 38 38 37 36 37 37 33 27 23 17 15 15 16 18 17 16 18 20 17 18 31 28 34 26 20 34 43 43 35 31 27 23 25 20 15 16
26 28 30 31 32 33 31 31 32 32 28 24 21 21 22 21 19 19 19 19 18 26 27 22 30 26 24 23 27 32 35 22 32 28 23 19 19 17
22 24 24 22 23 23 26 27 28 29 28 30 28 26 27 26 25 21 13 11 16 25 30 31 32 25 16 16 18 22 30 18 30 26 24 19 18 18
19 18 19 19 19 19 19 21 21 21 23 26 26 28 27 24 23 21 23 18 20 24 26 27 24 23 24 23 21 22 28 19 21 28 24 21 18 20
21 19 19 18 16 15 14 13 13 14 15 17 17 15 16 14 16 18 19 18 21 22 19 20 22 19 22 21 23 26 22 18 16 18 20 21 21 24
25 24 21 19 18 16 14 12 9 6 4 4 4 5 5 6 7 8 10 9 9 9 13 14 15 14 13 12 15 21 20 19 19 20 21 23 25 27
25 25 25 23 21 20 18 17 16 14 12 8 6 6 5 5 6 6 7 9 11 14 15 15 16 15 15 15 15 17 20 22 24 25 24 25 26 29
20 20 20 21 22 21 20 20 19 19 19 18 16 16 15 15 14 13 13 14 16 18 19 19 21 21 22 21 21 21 23 24 25 26 28 27 23 13
23 21 19 17 17 19 21 21 22 22 22 22 22 22 21 21 22 22 22 22 23 22 23 24 25 25 26 25 25 24 26 26 26 25 24 24 24 23
Wind_Direction_850mb
285 281 278 277 274 270 268 270 271 282 285 286 287 288 273 284 279 274 279 287 276 275 271 257 264 265 253 244 239 246 241 231 238 237 230 229 228 230
293 290 286 283 279 277 266 267 270 273 278 283 285 283 280 270 269 280 276 279 286 282 270 262 255 263 265 253 245 243 239 230 233 242 231 231 233 233
301 300 297 292 287 282 276 268 269 273 272 276 278 292 292 284 263 272 293 283 283 287 273 264 261 264 290 262 246 252 255 258 257 234 237 230 238 238
305 301 298 297 293 285 274 271 269 270 270 287 290 285 278 285 289 264 281 301 293 277 265 253 256 257 275 271 280 245 248 252 248 252 236 243 239 240
306 300 302 299 290 281 276 274 276 276 277 284 284 291 289 273 277 280 274 287 284 286 260 264 260 256 257 259 275 295 263 245 248 245 249 250 235 250
306 305 314 311 298 292 283 279 283 277 279 280 291 294 286 288 273 282 274 284 269 280 307 274 257 253 248 251 249 252 254 253 250 257 243 239 250 250
312 312 313 310 301 290 279 276 273 278 277 286 292 293 287 284 269 302 280 275 261 272 289 292 265 245 240 239 247 253 253 252 252 253 254 257 260 256
354 347 332 325 315 287 275 274 269 271 275 279 282 288 290 288 294 287 306 277 247 252 264 202 348 297 302 274 261 264 267 259 252 244 246 235 184 185
357 341 339 335 330 319 282 266 268 266 267 274 278 277 281 291 296 291 297 277 248 205 198 182 226 292 295 342 303 299 287 269 248 235 213 182 169 156
1 355 348 344 335 325 308 278 273 280 278 270 268 274 277 284 281 282 283 277 245 215 187 135 140 136 138 116 104 141 150 157 147 140 139 137 132 137
14 5 5 8 1 356 339 301 287 287 291 295 284 272 268 258 260 263 269 263 219 191 191 157 139 131 130 127 128 126 130 129 131 128 128 133 132 145
19 22 24 21 13 13 10 352 328 318 307 306 305 299 276 259 256 255 270 256 223 190 185 162 151 136 117 129 135 136 132 131 134 135 141 144 144 163
20 23 22 24 21 20 20 18 5 342 337 334 334 315 286 262 254 259 247 229 208 197 188 178 169 158 139 147 148 145 148 147 148 147 145 140 144 155
23 27 27 25 25 26 30 34 25 28 20 24 50 76 87 98 110 122 147 185 201 243 187 186 178 172 161 161 156 161 158 156 157 153 160 163 162 158
16 23 25 27 29 31 35 40 41 38 33 37 56 71 75 81 89 113 131 146 158 152 169 174 194 175 161 180 179 174 171 174 169 173 174 164 163 170
0 15 18 21 25 33 39 48 53 53 52 49 59 71 79 84 92 98 114 119 133 140 153 154 166 166 153 149 177 191 192 180 186 178 184 185 180 184
346 360 357 4 15 29 39 46 56 62 62 67 69 71 79 82 87 91 106 134 153 143 143 148 162 168 154 148 165 179 183 179 183 188 193 203 210 216
322 328 334 344 355 9 24 37 39 53 69 71 72 80 84 84 70 66 78 97 125 129 139 142 152 159 152 141 137 153 166 170 170 184 193 205 213 226
298 303 307 316 328 340 354 8 22 30 39 61 68 74 79 73 78 80 85 96 112 115 124 133 144 157 159 150 162 171 177 186 187 195 207 218 226 236
287 289 290 292 297 305 315 327 336 345 3 34 46 58 62 85 90 95 107 111 120 136 152 160 172 182 190 192 189 196 200 204 201 206 216 229 241 251
288 287 285 283 282 279 278 279 284 288 290 285 266 250 237 220 200 192 191 192 194 195 205 213 219 224 228 229 222 213 212 215 220 218 224 232 244 256
298 298 295 289 284 279 274 272 270 270 270 271 269 267 268 264 255 249 233 223 223 224 225 224 226 229 233 234 233 229 224 224 231 235 235 240 244 242
288 293 295 296 297 294 287 281 276 272 269 265 262 260 257 252 252 247 244 241 237 239 243 239 235 235 234 233 233 231 230 234 238 242 245 254 260 265